Location: 10033 Water Well
(34.0865°N, 106.8959°W)
Time: 21:48:36
(UTC+00:00)

OAO 3 Rocket - Pass Details

Date: 13 January 2026
Orbit: 613 x 660 km, 35.0° (Epoch: 11 February)

Event Time Altitude Azimuth Distance (km) Brightness Sun altitude
Rises 02:26:29 0° 280° (W) 2,978 7.7 -26.0°
Reaches altitude 10° 02:28:58 10° 273° (W) 2,062 6.7 -26.5°
Maximum altitude 02:33:27 39° 205° (SSW) 972 4.2 -27.4°
Enters shadow 02:33:45 39° 195° (SSW) 979 4.1 -27.5°
